Meteo Giornale » Osservazioni meteo Italia » Pisa-S Giusto

ore: 08:15 - Osservazioni Meteo Pisa-S Giusto
Lat. 43° 41' N Lon. 10° 23' E Alt. 2 metri s.l.m.

nuvoloso Europe/Rome

6 °C

Nuvoloso

Temp. 24 Ore

2 °C

10 °C

Est/Sud-Est

25.9 Km/h

Dew point 5 °C

Umidità 93 %

Visibilità  10 Km

Il sole sorge alle ore 07:34

Il sole tramonta alle ore 16:43

Data e Ora Cielo e Fenomeni T °C DP °C Um. % Pres. hPa Vis. km Vento km/h
Oggi h: 08:15 nuvoloso Nuvoloso 6 5 93 999 10 E/SE 25.9
Oggi h: 07:45 nuvoloso Nuvoloso 6 5 93 1000 10 E 14.8
Oggi h: 07:15 nuvoloso Nuvoloso 5 4 93 1000 10 E/SE 13
Oggi h: 06:45 nuvoloso Nuvoloso 5 4 93 1000 10 E 13
Oggi h: 06:15 nuvoloso Nuvoloso 5 4 93 1000 10 E 11.1
Oggi h: 05:45 nuvoloso Nuvoloso 5 4 93 1001 10 E 13
Oggi h: 05:15 molto_nuvoloso Molto Nuvoloso 5 4 93 1001 10 E/SE 14.8
Oggi h: 04:45 molto_nuvoloso Molto Nuvoloso 5 4 93 1001 10 E/SE 13
Oggi h: 04:15 coperto_pioggia Pioggia Debole 4 3 93 1002 10 E/SE 16.7
Oggi h: 03:45 molto_nuvoloso Molto Nuvoloso 3 2 93 1002 10 E/SE 16.7
Oggi h: 03:15 molto_nuvoloso Molto Nuvoloso 3 2 93 1003 10 E/SE 14.8
Oggi h: 02:45 molto_nuvoloso Molto Nuvoloso 3 3 100 1003 10 E 13
Oggi h: 02:15 molto_nuvoloso Molto Nuvoloso 2 2 100 1003 10 E 9.3
Oggi h: 01:45 molto_nuvoloso Molto Nuvoloso 2 2 100 1003 10 E 11.1
Oggi h: 01:15 nuvoloso Nuvoloso 2 2 100 1004 10 E 11.1
Oggi h: 00:45 nuvoloso Nuvoloso 2 2 100 1004 8 E 9.3
Oggi h: 00:15 sereno Sereno 2 2 100 1004 8 N 3.7
Ieri h: 23:45 sereno Sereno 2 2 100 1004 8 E/SE 13
Ieri h: 23:15 sereno Sereno 2 2 100 1004 8 S/SE 9.3
Ieri h: 22:15 sereno Sereno 3 3 100 1005 10 N 3.7
Ieri h: 21:15 sereno Sereno 2 2 100 1005 10 S/SE 7.4
Ieri h: 20:45 sereno Sereno 3 3 100 1005 10 E/SE 7.4
Ieri h: 20:15 sereno Sereno 4 4 100 1005 10 E 7.4
Ieri h: 19:45 sereno Sereno 4 4 100 1005 10 N 1.8
Ieri h: 19:15 sereno Sereno 5 4 93 1005 10 S/SO 7.4
Ieri h: 18:45 sereno Sereno 5 4 93 1005 10 N 3.7
Ieri h: 18:15 sereno Sereno 6 5 93 1005 10 NE 9.3
Ieri h: 17:45 sereno Sereno 6 6 100 1005 10 E 11.1
Ieri h: 16:45 sereno Sereno 7 6 93 1004 10 S 9.3
Ieri h: 15:45 poco_nuvoloso Poco Nuvoloso 10 6 76 1004 10 E/SE 9.3
Ieri h: 15:15 poco_nuvoloso Poco Nuvoloso 10 6 76 1004 10 E/SE 11.1
Ieri h: 14:45 molto_nuvoloso Molto Nuvoloso 10 6 76 1005 10 E/SE 13
Ieri h: 14:15 molto_nuvoloso Molto Nuvoloso 9 5 75 1005 10 E/SE 11.1
Ieri h: 13:45 molto_nuvoloso Molto Nuvoloso 9 5 75 1005 10 E/SE 11.1
Ieri h: 13:15 molto_nuvoloso Molto Nuvoloso 9 5 75 1005 10 E/SE 13
Ieri h: 12:45 molto_nuvoloso Molto Nuvoloso 10 6 76 1005 10 SE 16.7
Ieri h: 12:15 molto_nuvoloso Molto Nuvoloso 10 6 76 1006 10 E/SE 16.7
Ieri h: 11:45 poco_nuvoloso Poco Nuvoloso 9 5 75 1006 10 E/SE 16.7
Ieri h: 11:15 poco_nuvoloso Poco Nuvoloso 9 6 81 1006 10 E/SE 18.5
Ieri h: 10:45 poco_nuvoloso Poco Nuvoloso 9 6 81 1006 10 SE 11.1
Ieri h: 10:15 poco_nuvoloso Poco Nuvoloso 8 5 81 1006 10 E/SE 7.4
Ieri h: 09:45 nuvoloso Nuvoloso 7 5 87 1006 10 E/SE 7.4
Ieri h: 09:15 molto_nuvoloso Molto Nuvoloso 6 5 93 1006 10 E/SE 9.3
Ieri h: 08:45 molto_nuvoloso Molto Nuvoloso 5 5 100 1006 10 E/SE 9.3